CAPE
426 220 209 193 177 0 4 32 84 0 0 0 0 0 0 0 0 0 0 0 0 0 0 0 0 0 0 0 0 0 0 0 0 0 0 0 0 0 0 0 0 0
521 434 371 316 137 140 143 133 125 44 0 0 0 0 0 0 0 0 0 0 0 0 0 0 0 0 0 0 0 0 0 0 0 0 0 0 0 0 0 0 0 0
557 530 478 167 148 162 143 49 0 0 0 0 0 0 0 0 0 0 0 0 0 0 0 0 0 0 0 0 0 0 0 0 0 0 0 0 0 0 0 0 0 0
546 354 191 175 190 151 43 0 0 0 0 0 0 0 0 0 0 0 0 0 0 0 0 0 0 0 0 0 0 0 0 0 0 0 0 0 0 0 0 0 0 0
293 208 240 243 178 98 102 107 21 0 0 0 0 0 0 0 0 0 0 0 0 0 0 0 0 0 0 0 0 0 0 0 0 0 0 0 0 0 0 0 0 0
201 189 178 146 138 142 140 116 0 0 0 0 0 0 0 0 0 0 0 0 0 0 0 0 0 0 0 0 0 0 0 0 0 0 0 0 0 0 0 0 0 0
272 143 166 154 154 173 129 7 0 0 0 0 0 0 0 0 0 0 0 0 0 0 0 0 0 0 0 0 0 0 0 0 0 0 0 0 0 0 0 0 0 0
228 42 15 167 157 125 79 0 0 0 0 0 0 0 0 0 0 0 0 0 0 0 0 0 0 0 0 0 0 0 0 0 0 0 0 0 0 0 0 0 0 0
176 152 127 20 0 0 0 0 0 0 0 0 0 0 0 0 0 0 0 0 0 0 0 0 0 0 0 0 0 0 0 0 0 0 0 0 0 0 0 0 0 0
378 358 288 162 76 2 0 0 0 2 0 0 0 0 0 0 0 0 0 0 0 0 0 0 0 0 0 0 0 0 0 0 0 0 0 0 0 0 0 0 0 0
352 331 85 57 49 46 21 6 28 43 46 2 0 5 3 0 0 0 0 0 4 0 1 0 127 150 165 52 30 139 0 0 0 0 0 0 0 0 0 0 0 0
199 281 79 4 4 1 6 122 120 110 108 3 0 2 0 0 2 0 6 11 20 70 119 142 175 223 220 176 191 190 170 172 168 134 114 24 0 0 0 0 0 0
192 134 174 234 0 0 0 98 198 167 109 25 0 0 8 1 0 3 8 9 9 40 136 170 210 269 277 252 251 257 166 134 19 0 12 203 123 0 0 0 0 0
388 370 292 364 250 73 167 232 182 168 119 5 0 3 6 6 0 13 10 16 45 138 193 220 241 299 330 305 281 278 291 275 198 0 0 0 2 123 163 63 0 0
308 293 311 637 375 151 0 0 0 30 34 58 11 36 4 1 51 9 18 40 103 177 235 254 266 296 320 308 285 280 254 210 181 147 0 0 0 0 121 0 0 0
343 256 204 197 289 309 106 1 2 2 67 122 140 73 0 0 2 31 61 105 131 178 238 276 296 322 339 294 274 240 28 0 1 104 10 0 0 129 102 0 61 60
537 393 228 48 283 253 16 0 0 0 32 52 260 162 0 0 35 62 65 94 8 8 178 213 238 248 237 221 205 214 65 0 0 0 0 0 21 167 140 120 159 141
557 526 412 0 0 0 0 0 0 0 0 0 126 262 1 0 0 1 0 0 0 0 0 0 0 17 96 170 187 172 0 0 0 0 0 13 96 81 41 164 205 193
436 476 501 369 0 0 18 18 20 0 0 0 97 290 244 0 0 0 0 0 0 0 9 0 0 0 0 13 189 184 11 0 0 0 0 0 0 0 0 79 211 332
474 385 314 369 398 347 102 144 345 318 78 0 138 291 277 147 0 0 0 0 0 0 0 0 0 0 105 296 301 221 0 0 0 0 0 0 0 0 0 288 371 409
0 0 268 73 0 0 0 0 0 0 0 0 62 309 326 296 250 212 37 0 0 0 0 0 0 328 303 132 30 224 306 415 365 263 79 0 0 0 62 342 417 450
0 0 0 0 243 284 189 0 0 197 183 349 424 402 373 351 378 357 308 276 277 262 238 237 230 0 207 195 165 318 434 418 300 202 2 6 4 7 244 420 513 485
0 0 0 0 198 260 323 322 304 352 298 458 495 520 528 439 400 348 335 314 291 9 74 146 200 194 182 151 0 224 256 14 11 7 9 15 16 4 315 456 523 369
134 98 0 13 0 0 234 241 285 301 336 360 345 51 32 42 0 0 0 153 296 253 26 0 6 150 153 12 112 38 6 34 51 9 16 7 4 2 225 376 379 259
35 101 0 51 78 147 181 176 240 248 327 318 79 0 77 170 230 354 122 83 70 117 10 10 160 216 236 5 48 0 1 0 57 12 4 19 30 0 0 0 0 0
0 0 0 0 18 190 257 246 207 131 8 9 165 240 316 396 397 383 340 275 216 32 112 110 254 334 200 0 0 0 0 3 82 82 86 40 0 0 0 0 0 0
Wind_Speed
14 15 16 16 16 nan nan nan nan nan nan nan nan nan nan nan nan nan nan nan nan nan nan nan nan nan nan nan nan nan nan nan nan nan nan nan nan nan nan nan nan nan
14 15 15 15 16 16 15 15 15 nan nan nan nan nan nan nan nan nan nan nan nan nan nan nan nan nan nan nan nan nan nan nan nan nan nan nan nan nan nan nan nan nan
15 14 14 14 15 14 15 nan nan nan nan nan nan nan nan nan nan nan nan nan nan nan nan nan nan nan nan nan nan nan nan nan nan nan nan nan nan nan nan nan nan nan
16 15 15 14 14 14 nan nan nan nan nan nan nan nan nan nan nan nan nan nan nan nan nan nan nan nan nan nan nan nan nan nan nan nan nan nan nan nan nan nan nan nan
18 17 17 16 16 nan 16 19 nan nan nan nan nan nan nan nan nan nan nan nan nan nan nan nan nan nan nan nan nan nan nan nan nan nan nan nan nan nan nan nan nan nan
20 20 19 19 19 20 20 21 nan nan nan nan nan nan nan nan nan nan nan nan nan nan nan nan nan nan nan nan nan nan nan nan nan nan nan nan nan nan nan nan nan nan
21 20 21 21 20 21 23 nan nan nan nan nan nan nan nan nan nan nan nan nan nan nan nan nan nan nan nan nan nan nan nan nan nan nan nan nan nan nan nan nan nan nan
22 nan nan 21 22 22 nan nan nan nan nan nan nan nan nan nan nan nan nan nan nan nan nan nan nan nan nan nan nan nan nan nan nan nan nan nan nan nan nan nan nan nan
25 25 25 nan nan nan nan nan nan nan nan nan nan nan nan nan nan nan nan nan nan nan nan nan nan nan nan nan nan nan nan nan nan nan nan nan nan nan nan nan nan nan
30 29 29 27 nan nan nan nan nan nan nan nan nan nan nan nan nan nan nan nan nan nan nan nan nan nan nan nan nan nan nan nan nan nan nan nan nan nan nan nan nan nan
27 26 nan nan nan nan nan nan nan nan nan nan nan nan nan nan nan nan nan nan nan nan nan nan 19 19 20 nan nan 23 nan nan nan nan nan nan nan nan nan nan nan nan
19 19 nan nan nan nan nan 23 26 27 28 nan nan nan nan nan nan nan nan nan nan nan 21 22 21 20 20 20 21 20 21 21 19 18 16 nan nan nan nan nan nan nan
19 18 17 16 nan nan nan nan 27 26 25 nan nan nan nan nan nan nan nan nan nan nan 23 23 21 18 18 18 18 18 18 19 nan nan nan 14 11 nan nan nan nan nan
15 18 17 17 19 nan 18 22 23 23 22 nan nan nan nan nan nan nan nan nan nan 26 22 22 20 17 16 17 18 18 18 18 17 nan nan nan nan 9 11 nan nan nan
17 17 17 18 19 15 nan nan nan nan nan nan nan nan nan nan nan nan nan nan 24 21 19 17 18 16 15 17 18 18 17 17 16 15 nan nan nan nan 11 nan nan nan
18 17 16 16 17 17 17 nan nan nan nan 18 17 nan nan nan nan nan nan 20 18 15 14 14 15 15 16 17 18 19 nan nan nan 15 nan nan nan 16 13 nan nan nan
16 16 16 nan 14 15 nan nan nan nan nan nan 15 14 nan nan nan nan nan nan nan nan 15 14 14 14 16 17 17 20 nan nan nan nan nan nan nan 19 20 18 19 19
17 17 17 nan nan nan nan nan nan nan nan nan 16 15 nan nan nan nan nan nan nan nan nan nan nan nan nan 16 18 21 nan nan nan nan nan nan nan nan nan 22 23 22
19 19 18 18 nan nan nan nan nan nan nan nan nan 20 21 nan nan nan nan nan nan nan nan nan nan nan nan nan 19 21 nan nan nan nan nan nan nan nan nan nan 25 26
22 23 23 23 23 23 22 21 20 18 nan nan 24 24 24 23 nan nan nan nan nan nan nan nan nan nan 21 22 23 24 nan nan nan nan nan nan nan nan nan 28 28 29
nan nan 26 nan nan nan nan nan nan nan nan nan nan 25 25 25 27 28 nan nan nan nan nan nan nan 23 24 26 nan 28 28 26 26 29 nan nan nan nan nan 32 32 32
nan nan nan nan 29 28 26 nan nan 25 26 26 28 28 29 31 30 31 32 32 31 32 31 28 28 nan 30 31 32 30 30 30 32 34 nan nan nan nan 36 37 36 37
nan nan nan nan 31 30 27 26 26 28 30 31 29 29 30 30 31 33 35 36 35 nan nan 33 34 33 31 33 nan 30 32 nan nan nan nan nan nan nan 39 40 40 41
33 nan nan nan nan nan 30 30 30 31 32 32 29 nan nan nan nan nan nan 35 38 36 nan nan nan 39 38 nan 32 nan nan nan nan nan nan nan nan nan 42 42 42 45
nan 37 nan nan nan 34 34 33 31 31 32 32 nan nan nan 29 33 34 35 nan nan 43 nan nan 41 43 43 nan nan nan nan nan nan nan nan nan nan nan nan nan nan nan
nan nan nan nan nan 38 38 36 35 34 nan nan 33 36 37 39 41 42 42 43 44 nan 42 43 45 46 44 nan nan nan nan nan nan nan nan nan nan nan nan nan nan nan
Wind_Direction
252 245 250 249 247 nan nan nan nan nan nan nan nan nan nan nan nan nan nan nan nan nan nan nan nan nan nan nan nan nan nan nan nan nan nan nan nan nan nan nan nan nan
251 250 250 250 248 245 249 258 261 nan nan nan nan nan nan nan nan nan nan nan nan nan nan nan nan nan nan nan nan nan nan nan nan nan nan nan nan nan nan nan nan nan
251 252 258 258 260 259 258 nan nan nan nan nan nan nan nan nan nan nan nan nan nan nan nan nan nan nan nan nan nan nan nan nan nan nan nan nan nan nan nan nan nan nan
245 252 254 255 259 262 nan nan nan nan nan nan nan nan nan nan nan nan nan nan nan nan nan nan nan nan nan nan nan nan nan nan nan nan nan nan nan nan nan nan nan nan
244 242 246 252 257 nan 258 258 nan nan nan nan nan nan nan nan nan nan nan nan nan nan nan nan nan nan nan nan nan nan nan nan nan nan nan nan nan nan nan nan nan nan
238 248 251 256 261 264 263 265 nan nan nan nan nan nan nan nan nan nan nan nan nan nan nan nan nan nan nan nan nan nan nan nan nan nan nan nan nan nan nan nan nan nan
257 258 261 261 263 265 266 nan nan nan nan nan nan nan nan nan nan nan nan nan nan nan nan nan nan nan nan nan nan nan nan nan nan nan nan nan nan nan nan nan nan nan
262 nan nan 264 268 269 nan nan nan nan nan nan nan nan nan nan nan nan nan nan nan nan nan nan nan nan nan nan nan nan nan nan nan nan nan nan nan nan nan nan nan nan
243 244 246 nan nan nan nan nan nan nan nan nan nan nan nan nan nan nan nan nan nan nan nan nan nan nan nan nan nan nan nan nan nan nan nan nan nan nan nan nan nan nan
238 240 245 250 nan nan nan nan nan nan nan nan nan nan nan nan nan nan nan nan nan nan nan nan nan nan nan nan nan nan nan nan nan nan nan nan nan nan nan nan nan nan
236 246 nan nan nan nan nan nan nan nan nan nan nan nan nan nan nan nan nan nan nan nan nan nan 261 259 258 nan nan 272 nan nan nan nan nan nan nan nan nan nan nan nan
243 249 nan nan nan nan nan 277 283 290 293 nan nan nan nan nan nan nan nan nan nan nan 255 253 253 254 260 265 267 269 272 274 275 274 274 nan nan nan nan nan nan nan
268 270 262 267 nan nan nan nan 288 290 290 nan nan nan nan nan nan nan nan nan nan nan 261 259 256 257 262 267 270 272 273 275 nan nan nan 279 282 nan nan nan nan nan
271 273 277 278 270 nan 279 284 283 278 278 nan nan nan nan nan nan nan nan nan nan 271 270 266 260 254 254 257 262 265 266 270 279 nan nan nan nan 278 279 nan nan nan
268 265 269 274 280 281 nan nan nan nan nan nan nan nan nan nan nan nan nan nan 274 279 279 275 278 275 271 272 270 269 275 283 285 284 nan nan nan nan 280 nan nan nan
265 268 271 273 281 288 290 nan nan nan nan 292 278 nan nan nan nan nan nan 283 286 286 291 294 291 285 286 291 284 280 nan nan nan 274 nan nan nan 280 279 nan nan nan
265 269 269 nan 275 282 nan nan nan nan nan nan 289 294 nan nan nan nan nan nan nan nan 307 307 305 300 301 297 293 287 nan nan nan nan nan nan nan 280 284 289 285 282
265 267 270 nan nan nan nan nan nan nan nan nan 287 287 nan nan nan nan nan nan nan nan nan nan nan nan nan 296 294 289 nan nan nan nan nan nan nan nan nan 287 287 283
261 266 266 263 nan nan nan nan nan nan nan nan nan 289 285 nan nan nan nan nan nan nan nan nan nan nan nan nan 286 287 nan nan nan nan nan nan nan nan nan nan 285 284
261 264 262 259 261 267 270 270 272 277 nan nan 280 282 283 284 nan nan nan nan nan nan nan nan nan nan 296 292 289 290 nan nan nan nan nan nan nan nan nan 284 286 287
nan nan 259 nan nan nan nan nan nan nan nan nan nan 276 274 275 280 284 nan nan nan nan nan nan nan 286 286 286 nan 283 285 281 278 275 nan nan nan nan nan 284 284 285
nan nan nan nan 255 257 260 nan nan 265 266 265 266 266 261 262 270 274 277 275 274 276 278 279 274 nan 285 285 283 282 283 279 277 276 nan nan nan nan 283 284 284 284
nan nan nan nan 251 251 256 262 267 262 257 251 254 258 266 271 276 277 276 276 274 nan nan 275 277 280 279 277 nan 280 277 nan nan nan nan nan nan nan 280 282 282 283
248 nan nan nan nan nan 257 261 260 259 258 259 260 nan nan nan nan nan nan 267 270 269 nan nan nan 270 271 nan 271 nan nan nan nan nan nan nan nan nan 275 276 278 282
nan 246 nan nan nan 252 254 255 257 260 258 257 nan nan nan 240 249 254 257 nan nan 263 nan nan 264 265 269 nan nan nan nan nan nan nan nan nan nan nan nan nan nan nan
nan nan nan nan nan 260 259 258 255 252 nan nan 249 247 246 245 249 252 256 259 260 nan 263 264 264 262 265 nan nan nan nan nan nan nan nan nan nan nan nan nan nan nan